• In Uzbekistan
  • List of Countries
  • For 7 days
  • Water Temperature
  • Satellite Maps
  • Weather Map
  • Weather Widgets
  • user-avatar
    Login

    Hourly Weather Sulzbach-Rosenberg

    Today, 19 January, Friday

    Time Temperature Precipitation Wind Pressure Humidity
    00:00 -1°C° 0 mm 3 mps 711 mmHg 90%
    01:00 -1°C° 0 mm 2 mps 711 mmHg 92%
    02:00 -1°C° 0.5 mm 2 mps 711 mmHg 93%
    03:00 -1°C° 0.5 mm 2 mps 711 mmHg 94%
    04:00 +1°C° 0.5 mm 1 mps 712 mmHg 95%
    05:00 -1°C° 0.7 mm 2 mps 712 mmHg 95%
    06:00 0°C° 0.7 mm 3 mps 712 mmHg 94%
    07:00 0°C° 0.7 mm 3 mps 713 mmHg 94%
    08:00 -1°C° 0.1 mm 4 mps 713 mmHg 91%
    09:00 -1°C° 0.1 mm 5 mps 714 mmHg 89%
    10:00 -2°C° 0.1 mm 6 mps 715 mmHg 87%
    11:00 -2°C° 0.1 mm 6 mps 715 mmHg 85%
    12:00 -1°C° 0.1 mm 6 mps 716 mmHg 84%
    13:00 -1°C° 0.1 mm 6 mps 716 mmHg 82%
    14:00 -1°C° 0.1 mm 5 mps 716 mmHg 83%
    15:00 -1°C° 0.1 mm 4 mps 716 mmHg 84%
    16:00 -1°C° 0.1 mm 4 mps 717 mmHg 85%
    17:00 -1°C° 0 mm 3 mps 717 mmHg 87%
    18:00 -2°C° 0 mm 3 mps 717 mmHg 89%
    19:00 -4°C° 0 mm 3 mps 717 mmHg 92%
    20:00 -4°C° 0 mm 3 mps 717 mmHg 92%
    21:00 -4°C° 0 mm 3 mps 717 mmHg 93%
    22:00 -4°C° 0 mm 3 mps 717 mmHg 93%
    23:00 -4°C° 0.1 mm 3 mps 717 mmHg 93%

    Tomorrow, 20 January, Saturday

    Time Temperature Precipitation Wind Pressure Humidity
    00:00 -2°C° 0.1 mm 3 mps 717 mmHg 93%
    01:00 -2°C° 0.1 mm 3 mps 717 mmHg 93%
    02:00 -3°C° 0.4 mm 4 mps 717 mmHg 92%
    03:00 -2°C° 0.4 mm 4 mps 717 mmHg 91%
    04:00 -2°C° 0.4 mm 5 mps 717 mmHg 90%
    05:00 -2°C° 0.3 mm 4 mps 716 mmHg 90%
    06:00 -2°C° 0.3 mm 4 mps 716 mmHg 91%
    07:00 -2°C° 0.3 mm 4 mps 716 mmHg 91%
    08:00 -2°C° 0.1 mm 4 mps 716 mmHg 90%
    09:00 -2°C° 0.1 mm 4 mps 716 mmHg 90%
    10:00 -2°C° 0.1 mm 4 mps 716 mmHg 89%
    11:00 -1°C° 0.2 mm 3 mps 716 mmHg 89%
    12:00 0°C° 0.2 mm 3 mps 715 mmHg 89%
    13:00 +1°C° 0.2 mm 2 mps 715 mmHg 89%
    14:00 +1°C° 0.5 mm 2 mps 714 mmHg 91%
    15:00 +1°C° 0.5 mm 2 mps 713 mmHg 93%
    16:00 +1°C° 0.5 mm 2 mps 712 mmHg 95%
    17:00 -1°C° 0.7 mm 2 mps 712 mmHg 95%
    18:00 -1°C° 0.7 mm 2 mps 711 mmHg 95%
    19:00 -1°C° 0.7 mm 3 mps 711 mmHg 95%
    20:00 -1°C° 1.5 mm 3 mps 711 mmHg 95%
    21:00 -2°C° 1.5 mm 4 mps 711 mmHg 95%
    22:00 -2°C° 1.5 mm 4 mps 711 mmHg 95%
    23:00 -2°C° 0.6 mm 4 mps 711 mmHg 94%

    Day after tomorrow, 21 January, Sunday

    Time Temperature Precipitation Wind Pressure Humidity
    00:00 -2°C° 0.6 mm 5 mps 712 mmHg 92%
    01:00 -4°C° 0.6 mm 5 mps 713 mmHg 91%
    02:00 -4°C° 0.1 mm 5 mps 714 mmHg 92%
    03:00 -4°C° 0.1 mm 4 mps 715 mmHg 92%
    04:00 -4°C° 0.1 mm 4 mps 717 mmHg 92%
    05:00 -4°C° 0 mm 4 mps 718 mmHg 93%
    06:00 -4°C° 0 mm 4 mps 719 mmHg 93%
    07:00 -4°C° 0 mm 3 mps 720 mmHg 94%
    08:00 -4°C° 0 mm 3 mps 720 mmHg 93%
    09:00 -4°C° 0 mm 3 mps 721 mmHg 93%
    10:00 -4°C° 0 mm 3 mps 722 mmHg 93%
    11:00 -2°C° 0 mm 3 mps 722 mmHg 93%
    12:00 -2°C° 0 mm 3 mps 722 mmHg 92%
    13:00 -1°C° 0 mm 3 mps 722 mmHg 92%
    14:00 -1°C° 0 mm 2 mps 722 mmHg 92%
    15:00 -1°C° 0 mm 2 mps 722 mmHg 92%
    16:00 0°C° 0 mm 1 mps 722 mmHg 92%
    17:00 -1°C° 0 mm 1 mps 722 mmHg 93%
    18:00 -1°C° 0 mm 1 mps 722 mmHg 93%
    19:00 -2°C° 0 mm 1 mps 722 mmHg 94%
    20:00 -2°C° 0 mm 1 mps 722 mmHg 94%
    21:00 -3°C° 0 mm 1 mps 722 mmHg 94%
    22:00 -5°C° 0 mm 2 mps 722 mmHg 94%
    23:00 -5°C° 0 mm 2 mps 721 mmHg 94%

    22 January, Monday

    Time Temperature Precipitation Wind Pressure Humidity
    00:00 -5°C° 0 mm 2 mps 721 mmHg 93%
    01:00 -5°C° 0 mm 2 mps 721 mmHg 93%
    02:00 -5°C° 0.1 mm 2 mps 720 mmHg 92%
    03:00 -5°C° 0.1 mm 2 mps 720 mmHg 92%
    04:00 -5°C° 0.1 mm 3 mps 720 mmHg 91%
    05:00 -5°C° 0.5 mm 3 mps 720 mmHg 92%
    06:00 -5°C° 0.5 mm 3 mps 720 mmHg 93%
    07:00 -4°C° 0.5 mm 3 mps 720 mmHg 94%
    08:00 -4°C° 0.4 mm 3 mps 720 mmHg 95%
    09:00 -3°C° 0.4 mm 2 mps 720 mmHg 96%
    10:00 -2°C° 0.4 mm 2 mps 720 mmHg 96%
    11:00 -2°C° 0.3 mm 2 mps 721 mmHg 97%
    12:00 -1°C° 0.3 mm 2 mps 721 mmHg 98%
    13:00 +1°C° 0.3 mm 2 mps 721 mmHg 98%
    14:00 +1°C° 0.2 mm 2 mps 721 mmHg 99%
    15:00 +2°C° 0.2 mm 2 mps 720 mmHg 99%
    16:00 +2°C° 0.2 mm 2 mps 720 mmHg 99%
    17:00 +3°C° 1.4 mm 2 mps 720 mmHg 99%
    18:00 +3°C° 1.4 mm 3 mps 720 mmHg 99%
    19:00 +3°C° 1.4 mm 3 mps 720 mmHg 99%
    20:00 +4°C° 0.4 mm 4 mps 720 mmHg 98%
    21:00 +4°C° 0.4 mm 4 mps 720 mmHg 98%
    22:00 +5°C° 0.4 mm 5 mps 720 mmHg 97%
    23:00 +5°C° 0.3 mm 5 mps 720 mmHg 97%

    23 January, Tuesday

    Time Temperature Precipitation Wind Pressure Humidity
    00:00 +5°C° 0.3 mm 5 mps 720 mmHg 97%
    01:00 +5°C° 0.3 mm 5 mps 721 mmHg 97%
    02:00 +5°C° 0.2 mm 5 mps 721 mmHg 97%
    03:00 +5°C° 0.2 mm 5 mps 721 mmHg 97%
    04:00 +5°C° 0.2 mm 5 mps 721 mmHg 96%
    05:00 +6°C° 0.2 mm 5 mps 721 mmHg 96%
    06:00 +6°C° 0.2 mm 5 mps 721 mmHg 96%
    07:00 +6°C° 0.2 mm 5 mps 722 mmHg 95%
    08:00 +5°C° 0.2 mm 6 mps 722 mmHg 94%
    09:00 +5°C° 0.2 mm 6 mps 723 mmHg 93%
    10:00 +5°C° 0.2 mm 6 mps 723 mmHg 91%
    11:00 +5°C° 0.1 mm 6 mps 724 mmHg 91%
    12:00 +5°C° 0.1 mm 6 mps 724 mmHg 90%
    13:00 +5°C° 0.1 mm 6 mps 724 mmHg 90%
    14:00 +5°C° 0.2 mm 6 mps 725 mmHg 90%
    15:00 +5°C° 0.2 mm 6 mps 725 mmHg 91%
    16:00 +5°C° 0.2 mm 6 mps 725 mmHg 91%
    17:00 +6°C° 0.2 mm 5 mps 726 mmHg 92%
    18:00 +6°C° 0.2 mm 5 mps 727 mmHg 92%
    19:00 +6°C° 0.2 mm 5 mps 727 mmHg 92%
    20:00 +5°C° 0.1 mm 4 mps 728 mmHg 93%
    21:00 +5°C° 0.1 mm 4 mps 728 mmHg 94%
    22:00 +4°C° 0.1 mm 3 mps 729 mmHg 95%
    23:00 +4°C° 0.1 mm 3 mps 729 mmHg 95%

    24 January, Wednesday

    Time Temperature Precipitation Wind Pressure Humidity
    00:00 +4°C° 0.1 mm 3 mps 730 mmHg 96%
    01:00 +5°C° 0.1 mm 2 mps 730 mmHg 97%
    02:00 +5°C° 0 mm 2 mps 730 mmHg 97%
    03:00 +5°C° 0 mm 2 mps 730 mmHg 97%
    04:00 +5°C° 0 mm 2 mps 730 mmHg 97%
    05:00 +5°C° 0 mm 2 mps 730 mmHg 97%
    06:00 +6°C° 0 mm 1 mps 730 mmHg 97%
    07:00 +5°C° 0 mm 1 mps 730 mmHg 98%
    08:00 +6°C° 0 mm 1 mps 730 mmHg 97%
    09:00 +6°C° 0 mm 1 mps 730 mmHg 97%
    10:00 +6°C° 0 mm 1 mps 730 mmHg 96%
    11:00 +7°C° 0 mm 1 mps 730 mmHg 94%
    12:00 +7°C° 0 mm 1 mps 729 mmHg 92%
    13:00 +8°C° 0 mm 1 mps 729 mmHg 90%
    14:00 +8°C° 0 mm 1 mps 729 mmHg 91%
    15:00 +7°C° 0 mm 1 mps 728 mmHg 92%
    16:00 +7°C° 0 mm 1 mps 728 mmHg 93%
    17:00 +6°C° 0 mm 1 mps 728 mmHg 94%
    18:00 +5°C° 0 mm 1 mps 728 mmHg 95%
    19:00 +4°C° 0 mm 1 mps 728 mmHg 96%
    20:00 +4°C° 0 mm 1 mps 727 mmHg 96%
    21:00 +4°C° 0 mm 1 mps 727 mmHg 96%
    22:00 +3°C° 0 mm 1 mps 727 mmHg 95%
    23:00 +3°C° 0 mm 1 mps 726 mmHg 95%
    Show more